Погода в Гиганте

Погода в Гиганте : погода сейчас, прогноз погоды и архив. Всё, что Вы хотите узнать о погоде в Гиганте!

Поиск расширенной информации на нашем сайте:

Другие новости

Новости СМИ2

Главная страница сайта

Новости сайта

03.07.2017

Напоминаем, что на нашем специализированном сайте Метеоцентр.Азия вы можете получить высокодетализированные автоматические прогнозы погоды по пунктам России, СНГ и мира в авиационном формате (включающие направление и скорость ветра, видимость, явления погоды, количество и форму облачности, нижнюю и верхнюю границу облачности).

Рекомендуем: приворот вуду, услуги черной ведьмы Софии Драгош

Погода в Гиганте - сегодня

Время (UTC), дата Ветер
(°,м/с) 
Видим.   Явления Облачность Т
(°С)
Тd
(°С)
f(%) Тe
(°С)
Pmin
(гПа)
dP
(гПа)
Po
(мм)
O2
(г/м3)
Тmin Tmax R s Состояние
почвы
12 16.04.18 190 (Ю) 20000 м    8/3 1000 м средняя 
[Sc|Ac lent]
+16.8 -3.5 25 +18  1024.1  -1.3  761  289           
18 16.04.18 210 (ЮЗ) 20000 м    4/0 средняя 
[Ac trans]
+11.3 -2.8 37 +12  1023.3  0.3  760  295           
21 16.04.18 тихо ()   20000 м    10/10 600 м 
[Sc]
+10.8 -3.4 37 +11  1022.9  -0.5  760  295           
00 17.04.18 тихо ()   20000 м    3/3 600 м 
[Sc]
+7.8 -3.6 44 +8  1022.4  -0.5  760  298           
03 17.04.18 тихо ()   20000 м    9/6 600 м средняя 
[Sc|Ac cast]
+6.6 -1.4 57 +7  1022.4  760  299  +5.5        сухая 
06 17.04.18 220 (ЮЗ) 20000 м    9/0 средняя 
[Ac trans]
+15.1 -2.1 31 +15  1022.8  0.6  760  290           
09 17.04.18 190 (Ю) 20000 м    9/0 верхняя 
[Cs]
+18.9 -0.6 27 +20  1021.8  0.6  759  286           
12 17.04.18 230 (ЮЗ) 20000 м    9/1 600 м верхняя 
[Sc diur, vesp|Cs]
+20.2 +0.9 28 +20  1021  -0.8  759  285           
18 17.04.18 150 (ЮВ) 20000 м    4/0 верхняя 
[Ci fib]
+13.8 +2.1 45 +15  1021.1  0.9  759  291           
21 17.04.18 170 (Ю) 20000 м    3/0 верхняя 
[Ci fib]
+12.9 +2 47 +13  1021.5  0.4  759  292           
00 18.04.18 280 (З) 20000 м    ясно 
+9 +3.6 69 +10  1021.6  0.1  759  296           
03 18.04.18 тихо ()   20000 м    10/10 600 м 
[Sc]
+9.6 +4.5 70 +10  1021.2  -0.3  759  295  +8.1        сухая 
06 18.04.18 190 (Ю) 20000 м    9/0 средняя, верхняя 
[Ac trans|Ci]
+13.9 +6.5 61 +14  1021.5  0.4  759  290           
09 18.04.18 230 (ЮЗ) 20000 м    8/0 средняя, верхняя 
[Ac trans|Ci fib]
+21.9 +6.8 38 +22  1019.8  -1.4  758  282           
12 18.04.18 280 (З) 20000 м    9/3 1000 м средняя, верхняя 
[Sc diur, vesp|Ac trans|Ci]
+22.7 +5.8 33 +23  1018.1  -1.4  757  281           
18 18.04.18 260 (З) 20000 м    8/3 600 м средняя, верхняя 
[Sc|Ac trans|Ci fib]
+15.7 +7.6 59 +16  1017.1  -0.6  756  287           
21 18.04.18 260 (З) 20000 м    9/5 600 м верхняя 
[Sc|Ci fib]
+14.3 +7.2 62 +15  1015.5  -1.6  755  288           
00 19.04.18 250 (З) 20000 м    10/10 600 м 
[Sc]
+13.5 +6.7 63 +14  1013.1  -2.4  753  288           
03 19.04.18 250 (З) 4000 м  в посл. час ливневой дождь  8/4 300 м кучево-дожд., средняя, верхняя 
[Cb cap|Ac trans|Ci fib]
+11.1 +9.5 90 +11  1011.7  -1.4  752  289  +11.1      влажная 
15 19.04.18 230 (ЮЗ) 3{16}  10 км  слаб. ливневой дождь  9/8 600 м кучево-дожд., средняя, верхняя 
[Cb calv|Ac cast|Ci fib]
+11.8 +6.8 71 +12  1006  -0.5  747  288    +18.5  0.5     
18 19.04.18 250 (З) 20000 м  в посл. час ливневой дождь  10/8 600 м средняя 
[Sc diur, vesp|Ac cast]
+10.7 +6.4 75 +10  1005  -1  747  288           
21 19.04.18 240 (ЮЗ) 4{10}  20000 м    10/10 600 м 
[Sc]
+9.9 +7.7 86 +9  1003.3  -1.8  745  289           
03 20.04.18 260 (З) 5{10}  20000 м  в посл. час ливневой дождь  10/10 600 м кучево-дожд. 
[Cb calv]
+8.8 +7.4 91 +7  1001.7  -0.4  744  289  +8.8    0.3    влажная 
15 20.04.18 300 (СЗ) 5-10{12}  20000 м  в посл. час ливневой дождь  10/10 600 м кучево-дожд. 
[Cb cap]
+10.3 +7 80 +9  1006.6  1.7  748  289    +11.7     
21 20.04.18 310 (СЗ) 20000 м  в посл. час ливневой дождь  10/10 600 м кучево-дожд. 
[Cb cap]
+9.3 +7.9 91 +8  1009.9  750  291           
Время (UTC), дата Ветер
(°,м/с) 
Видим.   Явления Облачность Т
(°С)
Тd
(°С)
f(%) Тe
(°С)
Pmin
(гПа)
dP
(гПа)
Po
(мм)
O2
(г/м3)
Тmin Tmax R s Состояние
почвы

Для получения пояснительной информации подведите курсор к названию столбца.

ПОГОДА в Гиганте - архив

Всё, что Вы хотите узнать о погоде в Гиганте - удобно и подробно!

Выберите нужную дату (начиная с 1 января 2015* года) и нажмите кнопку "Найти".
Будут отображены архивные сводки погоды по пункту Гигант, начиная с указанной даты.


Отображать данные в формате CSV (для использования в таблицах Excel)


Внимание! Наш архив погоды предназначен исключительно для личного некоммерческого использования в познавательных целях. Если Вам необходимы официальные справки о состоянии погоды (для производственных, юридических, коммерческих и т.п. целей), обращайтесь в органы Росгидромета.

*Примечание: данная дата относится к архиву по метеостанциям СССР (Россия, СНГ, Балтия).
Архив по метеостанциям Зарубежной Европы и Азии (кроме Китая) хранится 10 дней, по другим регионам земного шара (Китай, Африка, Америка, Австралия, Океания) - 1 день.

Гигант - район местоположения метеостанции


Название, широта, долгота, высота метеостанции:
Гигант 46.5°ш. 41.3°д. 79 м над ур. моря [Российская Федерация]

Дополнительная информация

В oтличие oт бoльшинства пoгoдных сайтoв мы публикуем пoдрoбную метеoинфoрмацию в детальнoм прoфессиoнальнoм фoрмате.

Характеристики температуры и влажнoсти вoздуха измеряются на высoте 2 м в тени вдали oт зданий и деревьев.
Скoрoсть ветра измеряется на высoте 10 м (на урoвне рoста челoвека скoрoсть ветра ниже в 1.5-2 раза). Если метеoстанция нахoдится в гoрoде или в лесу, тo скoрoсть ветра занижена на 2-4 м/с пo сравнению с oткрытым местoм. Скoрoсть ветра над акватoриями крупных рек и oзёр, а также на вершинах хoлмoв на 2-5 м/с выше, чем в oбычных услoвиях.
Атмoсфернoе давление в разных тoчках местнoсти мoжет значительнo oтличаться oт давления на метеoстанции, в зависимoсти oт услoвий рельефа (при пoдъёме на 10 м давление пoнижается примернo на 1 мм рт.ст.).